Time,TemperatureF,DewpointF,PressureIn,WindDirection,WindDirectionDegrees,WindSpeedMPH,WindSpeedGustMPH,Humidity,HourlyPrecipIn,Conditions,Clouds,dailyrainin,SoftwareType,DateUTC
2013-01-17 00:00:00,52.3,51.8,29.93,WNW,298,1.0,4.0,98,0.00,,,0.00,WeatherTracker,2013-01-17 06:00:00,
2013-01-17 00:10:00,52.4,51.9,29.93,WNW,298,1.0,3.0,98,0.00,,,0.00,WeatherTracker,2013-01-17 06:10:00,
2013-01-17 00:15:00,52.4,51.9,29.94,West,267,5.0,8.0,98,0.00,,,0.00,WeatherTracker,2013-01-17 06:15:00,
2013-01-17 00:25:00,52.0,51.5,29.95,WNW,295,5.0,9.0,98,0.00,,,0.00,WeatherTracker,2013-01-17 06:25:00,
2013-01-17 00:30:00,51.9,51.4,29.95,WNW,284,7.0,9.0,98,0.00,,,0.00,WeatherTracker,2013-01-17 06:30:00,
2013-01-17 00:40:00,51.7,51.2,29.94,West,273,1.0,7.0,98,0.00,,,0.00,WeatherTracker,2013-01-17 06:40:00,
2013-01-17 00:45:00,51.7,51.2,29.94,WNW,288,2.0,7.0,98,0.00,,,0.00,WeatherTracker,2013-01-17 06:45:00,
2013-01-17 00:50:00,51.7,51.2,29.95,WNW,287,5.0,7.0,98,0.00,,,0.00,WeatherTracker,2013-01-17 06:50:00,
2013-01-17 00:55:00,51.6,51.1,29.94,NW,321,4.0,10.0,98,0.00,,,0.00,WeatherTracker,2013-01-17 06:55:00,
2013-01-17 01:05:00,51.4,50.9,29.95,WNW,288,4.0,9.0,98,0.00,,,0.00,WeatherTracker,2013-01-17 07:05:00,
2013-01-17 01:10:00,51.2,50.7,29.95,NW,321,7.0,9.0,98,0.00,,,0.00,WeatherTracker,2013-01-17 07:10:00,
2013-01-17 01:15:00,51.0,50.5,29.94,WNW,283,5.0,8.0,98,0.00,,,0.00,WeatherTracker,2013-01-17 07:15:00,
2013-01-17 01:25:00,50.7,50.2,29.94,WNW,286,5.0,9.0,98,0.00,,,0.00,WeatherTracker,2013-01-17 07:25:00,
2013-01-17 01:30:00,50.4,49.9,29.94,West,267,6.0,9.0,98,0.00,,,0.00,WeatherTracker,2013-01-17 07:30:00,
2013-01-17 01:35:00,50.3,49.8,29.95,NW,324,7.0,9.0,98,0.00,,,0.00,WeatherTracker,2013-01-17 07:35:00,
2013-01-17 01:40:00,50.0,49.5,29.95,West,273,3.0,10.0,98,0.00,,,0.00,WeatherTracker,2013-01-17 07:40:00,
2013-01-17 01:45:00,49.7,48.9,29.94,NW,317,4.0,10.0,97,0.00,,,0.00,WeatherTracker,2013-01-17 07:45:00,
2013-01-17 01:55:00,49.2,48.7,29.95,WNW,294,3.0,10.0,98,0.00,,,0.00,WeatherTracker,2013-01-17 07:55:00,
2013-01-17 02:00:00,49.1,48.6,29.95,WNW,285,4.0,10.0,98,0.00,,,0.00,WeatherTracker,2013-01-17 08:00:00,
2013-01-17 02:10:00,48.6,48.1,29.95,NW,323,6.0,9.0,98,0.00,,,0.00,WeatherTracker,2013-01-17 08:10:00,
2013-01-17 02:15:00,48.4,47.6,29.95,WSW,255,4.0,9.0,97,0.00,,,0.00,WeatherTracker,2013-01-17 08:15:00,
2013-01-17 02:25:00,48.1,47.6,29.95,West,261,4.0,10.0,98,0.00,,,0.00,WeatherTracker,2013-01-17 08:25:00,
2013-01-17 02:30:00,48.1,47.6,29.95,West,276,3.0,10.0,98,0.01,,,0.01,WeatherTracker,2013-01-17 08:30:00,
2013-01-17 02:35:00,47.9,47.4,29.95,West,269,4.0,9.0,98,0.01,,,0.01,WeatherTracker,2013-01-17 08:35:00,
2013-01-17 02:45:00,47.7,46.9,29.94,West,267,4.0,7.0,97,0.01,,,0.01,WeatherTracker,2013-01-17 08:45:00,
2013-01-17 02:55:00,47.5,47.0,29.94,West,281,6.0,7.0,98,0.01,,,0.01,WeatherTracker,2013-01-17 08:55:00,
2013-01-17 03:00:00,47.4,46.9,29.94,West,271,4.0,7.0,98,0.01,,,0.01,WeatherTracker,2013-01-17 09:00:00,
2013-01-17 03:10:00,47.1,46.3,29.94,West,269,4.0,7.0,97,0.01,,,0.01,WeatherTracker,2013-01-17 09:10:00,
2013-01-17 03:15:00,47.0,46.2,29.94,West,273,4.0,7.0,97,0.01,,,0.01,WeatherTracker,2013-01-17 09:15:00,
2013-01-17 03:20:00,46.9,46.4,29.94,WSW,248,3.0,7.0,98,0.01,,,0.01,WeatherTracker,2013-01-17 09:20:00,
2013-01-17 03:25:00,46.8,46.3,29.94,WSW,257,5.0,7.0,98,0.01,,,0.01,WeatherTracker,2013-01-17 09:25:00,
2013-01-17 03:30:00,46.8,46.3,29.93,WSW,254,7.0,7.0,98,0.00,,,0.01,WeatherTracker,2013-01-17 09:30:00,
2013-01-17 03:40:00,46.6,45.8,29.94,WSW,247,4.0,8.0,97,0.00,,,0.01,WeatherTracker,2013-01-17 09:40:00,
2013-01-17 03:45:00,46.5,45.7,29.94,WSW,251,3.0,8.0,97,0.00,,,0.01,WeatherTracker,2013-01-17 09:45:00,
2013-01-17 03:55:00,46.4,45.9,29.94,WSW,251,2.0,7.0,98,0.00,,,0.01,WeatherTracker,2013-01-17 09:55:00,
2013-01-17 04:00:00,46.3,45.8,29.93,West,262,6.0,7.0,98,0.00,,,0.01,WeatherTracker,2013-01-17 10:00:00,
2013-01-17 04:10:00,46.1,45.3,29.93,SW,234,7.0,9.0,97,0.00,,,0.01,WeatherTracker,2013-01-17 10:10:00,
2013-01-17 04:15:00,45.9,45.1,29.94,WSW,258,5.0,9.0,97,0.00,,,0.01,WeatherTracker,2013-01-17 10:15:00,
2013-01-17 04:25:00,45.8,45.3,29.94,West,279,5.0,8.0,98,0.00,,,0.01,WeatherTracker,2013-01-17 10:25:00,
2013-01-17 04:30:00,45.7,45.2,29.94,West,269,4.0,8.0,98,0.00,,,0.01,WeatherTracker,2013-01-17 10:30:00,
2013-01-17 04:35:00,45.6,45.1,29.95,West,273,5.0,10.0,98,0.00,,,0.01,WeatherTracker,2013-01-17 10:35:00,
2013-01-17 04:45:00,45.4,44.6,29.95,West,271,8.0,13.0,97,0.00,,,0.01,WeatherTracker,2013-01-17 10:45:00,
2013-01-17 04:50:00,45.1,44.6,29.95,WSW,238,4.0,13.0,98,0.00,,,0.01,WeatherTracker,2013-01-17 10:50:00,
2013-01-17 04:55:00,45.0,44.5,29.96,West,266,4.0,13.0,98,0.00,,,0.01,WeatherTracker,2013-01-17 10:55:00,
2013-01-17 05:00:00,44.9,44.1,29.96,WSW,250,4.0,11.0,97,0.00,,,0.01,WeatherTracker,2013-01-17 11:00:00,
2013-01-17 05:10:00,44.7,43.9,29.97,West,259,6.0,8.0,97,0.00,,,0.01,WeatherTracker,2013-01-17 11:10:00,
2013-01-17 05:15:00,44.6,44.1,29.96,WSW,250,4.0,9.0,98,0.00,,,0.01,WeatherTracker,2013-01-17 11:15:00,
2013-01-17 05:25:00,44.2,43.4,29.97,West,269,6.0,11.0,97,0.01,,,0.02,WeatherTracker,2013-01-17 11:25:00,
2013-01-17 05:30:00,44.1,43.3,29.96,WSW,252,8.0,11.0,97,0.01,,,0.02,WeatherTracker,2013-01-17 11:30:00,
2013-01-17 05:40:00,43.7,42.9,29.97,WNW,296,9.0,14.0,97,0.01,,,0.02,WeatherTracker,2013-01-17 11:40:00,
2013-01-17 05:45:00,43.3,42.5,29.98,WSW,252,7.0,14.0,97,0.01,,,0.02,WeatherTracker,2013-01-17 11:45:00,
2013-01-17 05:55:00,43.1,42.3,29.98,West,277,8.0,13.0,97,0.01,,,0.02,WeatherTracker,2013-01-17 11:55:00,
2013-01-17 06:00:00,42.9,42.1,29.98,WNW,300,5.0,13.0,97,0.01,,,0.02,WeatherTracker,2013-01-17 12:00:00,
2013-01-17 06:10:00,42.4,41.6,29.98,WNW,284,6.0,15.0,97,0.01,,,0.02,WeatherTracker,2013-01-17 12:10:00,
2013-01-17 06:15:00,42.3,41.5,29.98,West,259,4.0,15.0,97,0.01,,,0.02,WeatherTracker,2013-01-17 12:15:00,
2013-01-17 06:20:00,42.0,41.2,29.99,West,268,6.0,16.0,97,0.00,,,0.02,WeatherTracker,2013-01-17 12:20:00,
2013-01-17 06:25:00,41.9,41.1,29.98,West,273,8.0,16.0,97,0.00,,,0.02,WeatherTracker,2013-01-17 12:25:00,
2013-01-17 06:30:00,41.9,41.1,29.99,WNW,292,7.0,15.0,97,0.00,,,0.02,WeatherTracker,2013-01-17 12:30:00,
2013-01-17 06:40:00,41.9,41.1,29.99,WSW,250,4.0,12.0,97,0.00,,,0.02,WeatherTracker,2013-01-17 12:40:00,
2013-01-17 06:45:00,41.9,41.1,29.99,WSW,245,5.0,13.0,97,0.00,,,0.02,WeatherTracker,2013-01-17 12:45:00,
2013-01-17 06:51:00,41.9,41.1,29.99,WSW,254,5.0,0.0,97,0.00,,,0.02,WeatherTracker,2013-01-17 12:51:00,
2013-01-17 07:00:00,41.8,41.0,30.00,West,268,6.0,13.0,97,0.00,,,0.02,WeatherTracker,2013-01-17 13:00:00,
2013-01-17 07:10:00,41.8,41.0,30.00,NW,317,5.0,11.0,97,0.00,,,0.02,WeatherTracker,2013-01-17 13:10:00,
2013-01-17 07:15:00,41.9,41.1,30.00,WSW,238,3.0,11.0,97,0.00,,,0.02,WeatherTracker,2013-01-17 13:15:00,
2013-01-17 07:25:00,41.7,40.9,30.00,WSW,254,4.0,11.0,97,0.00,,,0.02,WeatherTracker,2013-01-17 13:25:00,
2013-01-17 07:30:00,41.5,40.7,30.00,WSW,250,7.0,13.0,97,0.00,,,0.02,WeatherTracker,2013-01-17 13:30:00,
2013-01-17 07:40:00,41.1,40.3,30.01,West,259,8.0,13.0,97,0.00,,,0.02,WeatherTracker,2013-01-17 13:40:00,
2013-01-17 07:45:00,41.1,40.3,30.01,West,263,11.0,12.0,97,0.00,,,0.02,WeatherTracker,2013-01-17 13:45:00,
2013-01-17 07:50:00,40.9,40.1,30.01,SW,230,10.0,13.0,97,0.00,,,0.02,WeatherTracker,2013-01-17 13:50:00,
2013-01-17 07:55:00,40.9,40.1,30.01,West,273,4.0,13.0,97,0.00,,,0.02,WeatherTracker,2013-01-17 13:55:00,
2013-01-17 08:00:00,41.0,40.2,30.01,West,277,7.0,10.0,97,0.00,,,0.02,WeatherTracker,2013-01-17 14:00:00,
2013-01-17 08:10:00,40.7,39.6,30.02,West,273,7.0,16.0,96,0.00,,,0.02,WeatherTracker,2013-01-17 14:10:00,
2013-01-17 08:15:00,40.6,39.6,30.02,West,272,6.0,16.0,96,0.00,,,0.02,WeatherTracker,2013-01-17 14:15:00,
2013-01-17 08:25:00,40.5,39.5,30.02,West,259,7.0,13.0,96,0.00,,,0.02,WeatherTracker,2013-01-17 14:25:00,
2013-01-17 08:30:00,40.7,39.6,30.02,SW,236,4.0,11.0,96,0.00,,,0.02,WeatherTracker,2013-01-17 14:30:00,
2013-01-17 08:40:00,40.7,39.6,30.02,West,263,9.0,13.0,96,0.00,,,0.02,WeatherTracker,2013-01-17 14:40:00,
2013-01-17 08:45:00,40.4,39.4,30.03,West,275,12.0,17.0,96,0.00,,,0.02,WeatherTracker,2013-01-17 14:45:00,
2013-01-17 08:55:00,40.0,39.0,30.03,West,260,7.0,18.0,96,0.00,,,0.02,WeatherTracker,2013-01-17 14:55:00,
2013-01-17 09:05:00,39.8,38.8,30.04,WSW,245,11.0,16.0,96,0.00,,,0.02,WeatherTracker,2013-01-17 15:05:00,
2013-01-17 09:15:00,39.8,38.8,30.04,WSW,250,6.0,15.0,96,0.00,,,0.02,WeatherTracker,2013-01-17 15:15:00,
2013-01-17 09:20:00,39.8,38.8,30.05,WNW,302,9.0,15.0,96,0.00,,,0.02,WeatherTracker,2013-01-17 15:20:00,
2013-01-17 09:25:00,39.7,38.7,30.05,West,266,6.0,15.0,96,0.00,,,0.02,WeatherTracker,2013-01-17 15:25:00,
2013-01-17 09:30:00,39.7,38.7,30.05,West,278,8.0,14.0,96,0.00,,,0.02,WeatherTracker,2013-01-17 15:30:00,
2013-01-17 09:40:00,39.6,38.6,30.05,SW,232,12.0,16.0,96,0.01,,,0.03,WeatherTracker,2013-01-17 15:40:00,
2013-01-17 09:45:00,39.4,38.4,30.05,WNW,288,12.0,16.0,96,0.01,,,0.03,WeatherTracker,2013-01-17 15:45:00,
2013-01-17 09:55:00,39.2,38.2,30.04,West,265,6.0,14.0,96,0.01,,,0.03,WeatherTracker,2013-01-17 15:55:00,
2013-01-17 10:00:00,39.4,38.4,30.05,WSW,258,11.0,14.0,96,0.01,,,0.03,WeatherTracker,2013-01-17 16:00:00,
2013-01-17 10:10:00,39.9,38.9,30.04,WSW,258,9.0,15.0,96,0.01,,,0.03,WeatherTracker,2013-01-17 16:10:00,
2013-01-17 10:15:00,40.0,39.0,30.05,WNW,284,7.0,15.0,96,0.01,,,0.03,WeatherTracker,2013-01-17 16:15:00,
2013-01-17 10:25:00,40.3,39.0,30.04,West,272,5.0,16.0,95,0.01,,,0.03,WeatherTracker,2013-01-17 16:25:00,
2013-01-17 10:30:00,40.4,39.1,30.04,West,267,14.0,17.0,95,0.01,,,0.03,WeatherTracker,2013-01-17 16:30:00,
2013-01-17 10:40:00,39.8,37.9,30.04,NW,306,10.0,17.0,93,0.00,,,0.03,WeatherTracker,2013-01-17 16:40:00,
2013-01-17 10:45:00,39.8,37.9,30.04,West,276,9.0,17.0,93,0.00,,,0.03,WeatherTracker,2013-01-17 16:45:00,
2013-01-17 10:55:00,39.9,37.8,30.04,West,275,10.0,17.0,92,0.00,,,0.03,WeatherTracker,2013-01-17 16:55:00,
2013-01-17 11:00:00,39.9,37.8,30.03,West,281,9.0,21.0,92,0.00,,,0.03,WeatherTracker,2013-01-17 17:00:00,
2013-01-17 11:05:00,40.2,38.3,30.04,WNW,297,8.0,21.0,93,0.00,,,0.03,WeatherTracker,2013-01-17 17:05:00,
2013-01-17 11:10:00,40.2,38.1,30.04,West,271,7.0,21.0,92,0.00,,,0.03,WeatherTracker,2013-01-17 17:10:00,
2013-01-17 11:15:00,40.2,38.1,30.04,West,279,14.0,16.0,92,0.00,,,0.03,WeatherTracker,2013-01-17 17:15:00,
2013-01-17 11:20:00,40.0,37.3,30.04,WNW,301,10.0,18.0,90,0.00,,,0.03,WeatherTracker,2013-01-17 17:20:00,
2013-01-17 11:30:00,39.1,37.0,30.04,West,269,13.0,19.0,92,0.01,,,0.04,WeatherTracker,2013-01-17 17:30:00,
2013-01-17 11:40:00,39.2,37.1,30.05,WNW,295,13.0,21.0,92,0.01,,,0.04,WeatherTracker,2013-01-17 17:40:00,
2013-01-17 11:45:00,39.1,37.0,30.04,West,262,11.0,23.0,92,0.01,,,0.04,WeatherTracker,2013-01-17 17:45:00,
2013-01-17 11:55:00,39.5,37.1,30.03,WNW,282,8.0,23.0,91,0.01,,,0.04,WeatherTracker,2013-01-17 17:55:00,
2013-01-17 12:05:00,38.9,36.2,30.04,WNW,296,12.0,17.0,90,0.01,,,0.04,WeatherTracker,2013-01-17 18:05:00,
2013-01-17 12:10:00,38.6,35.6,30.04,NW,309,10.0,17.0,89,0.01,,,0.04,WeatherTracker,2013-01-17 18:10:00,
2013-01-17 12:15:00,38.4,35.2,30.05,WNW,299,11.0,19.0,88,0.01,,,0.04,WeatherTracker,2013-01-17 18:15:00,
2013-01-17 12:25:00,37.7,34.8,30.05,WNW,286,15.0,17.0,89,0.00,,,0.04,WeatherTracker,2013-01-17 18:25:00,
2013-01-17 12:30:00,37.2,34.5,30.04,NW,315,10.0,17.0,90,0.00,,,0.04,WeatherTracker,2013-01-17 18:30:00,
2013-01-17 12:40:00,37.1,34.2,30.05,WNW,301,11.0,17.0,89,0.00,,,0.04,WeatherTracker,2013-01-17 18:40:00,
2013-01-17 12:45:00,37.0,34.3,30.05,WNW,296,10.0,17.0,90,0.00,,,0.04,WeatherTracker,2013-01-17 18:45:00,
2013-01-17 12:50:00,37.0,34.6,30.04,WNW,301,6.0,17.0,91,0.00,,,0.04,WeatherTracker,2013-01-17 18:50:00,
2013-01-17 12:55:00,37.0,34.9,30.04,WNW,287,5.0,17.0,92,0.00,,,0.04,WeatherTracker,2013-01-17 18:55:00,
2013-01-17 13:00:00,37.2,35.1,30.04,NW,323,11.0,17.0,92,0.00,,,0.04,WeatherTracker,2013-01-17 19:00:00,
2013-01-17 13:10:00,37.4,34.7,30.04,WSW,252,6.0,14.0,90,0.00,,,0.04,WeatherTracker,2013-01-17 19:10:00,
2013-01-17 13:20:00,37.4,34.7,30.05,NW,317,10.0,17.0,90,0.00,,,0.04,WeatherTracker,2013-01-17 19:20:00,
2013-01-17 13:30:00,37.4,34.7,30.05,WNW,282,6.0,17.0,90,0.00,,,0.04,WeatherTracker,2013-01-17 19:30:00,
2013-01-17 13:40:00,37.4,35.0,30.05,NW,306,9.0,14.0,91,0.00,,,0.04,WeatherTracker,2013-01-17 19:40:00,
2013-01-17 13:45:00,37.1,34.4,30.05,West,278,7.0,15.0,90,0.00,,,0.04,WeatherTracker,2013-01-17 19:45:00,
2013-01-17 13:55:00,37.2,34.5,30.06,WNW,285,6.0,19.0,90,0.00,,,0.04,WeatherTracker,2013-01-17 19:55:00,
2013-01-17 14:00:00,37.2,34.3,30.06,WNW,303,7.0,18.0,89,0.00,,,0.04,WeatherTracker,2013-01-17 20:00:00,
2013-01-17 14:05:00,37.3,34.4,30.05,WNW,290,11.0,18.0,89,0.00,,,0.04,WeatherTracker,2013-01-17 20:05:00,
2013-01-17 14:15:00,37.5,34.3,30.05,WNW,282,17.0,18.0,88,0.00,,,0.04,WeatherTracker,2013-01-17 20:15:00,
2013-01-17 14:25:00,37.8,34.6,30.06,NNW,336,7.0,19.0,88,0.00,,,0.04,WeatherTracker,2013-01-17 20:25:00,
2013-01-17 14:30:00,38.0,34.5,30.06,NW,316,2.0,19.0,87,0.00,,,0.04,WeatherTracker,2013-01-17 20:30:00,
2013-01-17 14:40:00,38.3,34.5,30.07,NW,321,6.0,19.0,86,0.00,,,0.04,WeatherTracker,2013-01-17 20:40:00,
2013-01-17 14:45:00,38.5,34.7,30.07,NNW,344,13.0,17.0,86,0.00,,,0.04,WeatherTracker,2013-01-17 20:45:00,
2013-01-17 14:55:00,38.9,35.1,30.07,WNW,292,8.0,19.0,86,0.00,,,0.04,WeatherTracker,2013-01-17 20:55:00,
2013-01-17 15:05:00,39.2,35.1,30.08,NNW,332,5.0,15.0,85,0.00,,,0.04,WeatherTracker,2013-01-17 21:05:00,
2013-01-17 15:10:00,39.3,35.2,30.08,North,355,7.0,15.0,85,0.00,,,0.04,WeatherTracker,2013-01-17 21:10:00,
2013-01-17 15:15:00,39.5,35.7,30.08,WNW,298,7.0,15.0,86,0.00,,,0.04,WeatherTracker,2013-01-17 21:15:00,
2013-01-17 15:25:00,39.8,35.7,30.09,NW,323,5.0,12.0,85,0.00,,,0.04,WeatherTracker,2013-01-17 21:25:00,
2013-01-17 15:30:00,39.9,36.1,30.10,NW,311,4.0,12.0,86,0.00,,,0.04,WeatherTracker,2013-01-17 21:30:00,
2013-01-17 15:40:00,40.1,36.3,30.10,WNW,287,8.0,14.0,86,0.00,,,0.04,WeatherTracker,2013-01-17 21:40:00,
2013-01-17 15:45:00,40.2,36.4,30.10,NW,318,5.0,13.0,86,0.00,,,0.04,WeatherTracker,2013-01-17 21:45:00,
2013-01-17 15:50:00,40.3,36.5,30.11,West,274,11.0,18.0,86,0.00,,,0.04,WeatherTracker,2013-01-17 21:50:00,
2013-01-17 15:55:00,40.4,36.3,30.11,NW,320,15.0,20.0,85,0.00,,,0.04,WeatherTracker,2013-01-17 21:55:00,
2013-01-17 16:00:00,40.5,36.4,30.11,NNW,334,9.0,20.0,85,0.00,,,0.04,WeatherTracker,2013-01-17 22:00:00,
2013-01-17 16:10:00,40.6,36.4,30.11,NW,306,8.0,16.0,85,0.00,,,0.04,WeatherTracker,2013-01-17 22:10:00,
2013-01-17 16:15:00,40.6,36.4,30.12,NW,326,7.0,16.0,85,0.00,,,0.04,WeatherTracker,2013-01-17 22:15:00,
2013-01-17 16:25:00,40.6,36.4,30.12,NNW,330,13.0,18.0,85,0.00,,,0.04,WeatherTracker,2013-01-17 22:25:00,
2013-01-17 16:30:00,40.7,36.5,30.12,NW,324,12.0,19.0,85,0.00,,,0.04,WeatherTracker,2013-01-17 22:30:00,
2013-01-17 16:40:00,40.7,36.5,30.13,NNW,336,11.0,19.0,85,0.00,,,0.04,WeatherTracker,2013-01-17 22:40:00,
2013-01-17 16:45:00,40.7,36.5,30.14,NW,326,17.0,17.0,85,0.00,,,0.04,WeatherTracker,2013-01-17 22:45:00,
2013-01-17 16:50:00,40.7,36.5,30.14,NNW,337,9.0,19.0,85,0.00,,,0.04,WeatherTracker,2013-01-17 22:50:00,
2013-01-17 17:00:00,40.7,36.5,30.14,NNW,348,6.0,17.0,85,0.00,,,0.04,WeatherTracker,2013-01-17 23:00:00,
2013-01-17 17:05:00,40.7,36.5,30.15,NW,304,13.0,21.0,85,0.00,,,0.04,WeatherTracker,2013-01-17 23:05:00,
2013-01-17 17:10:00,40.7,36.5,30.16,North,349,8.0,21.0,85,0.00,,,0.04,WeatherTracker,2013-01-17 23:10:00,
2013-01-17 17:15:00,40.7,36.8,30.16,NW,319,14.0,19.0,86,0.00,,,0.04,WeatherTracker,2013-01-17 23:15:00,
2013-01-17 17:25:00,40.7,36.5,30.17,NNW,340,8.0,20.0,85,0.00,,,0.04,WeatherTracker,2013-01-17 23:25:00,
2013-01-17 17:30:00,40.7,36.5,30.17,NW,319,7.0,20.0,85,0.00,,,0.04,WeatherTracker,2013-01-17 23:30:00,
2013-01-17 17:40:00,40.7,36.5,30.18,NW,317,8.0,19.0,85,0.00,,,0.04,WeatherTracker,2013-01-17 23:40:00,
2013-01-17 17:45:00,40.7,36.5,30.18,NW,322,10.0,22.0,85,0.00,,,0.04,WeatherTracker,2013-01-17 23:45:00,
2013-01-17 17:50:00,40.8,36.6,30.18,NW,318,10.0,22.0,85,0.00,,,0.04,WeatherTracker,2013-01-17 23:50:00,
2013-01-17 17:55:00,40.8,36.6,30.19,North,349,5.0,20.0,85,0.00,,,0.04,WeatherTracker,2013-01-17 23:55:00,
2013-01-17 18:05:00,40.9,36.7,30.20,NNW,342,5.0,23.0,85,0.00,,,0.04,WeatherTracker,2013-01-18 00:05:00,
2013-01-17 18:10:00,40.9,36.7,30.20,NNW,328,9.0,18.0,85,0.00,,,0.04,WeatherTracker,2013-01-18 00:10:00,
2013-01-17 18:15:00,41.0,36.8,30.20,NNW,348,12.0,18.0,85,0.00,,,0.04,WeatherTracker,2013-01-18 00:15:00,
2013-01-17 18:25:00,41.1,36.6,30.21,NW,324,11.0,20.0,84,0.00,,,0.04,WeatherTracker,2013-01-18 00:25:00,
2013-01-17 18:30:00,41.1,36.9,30.22,NNW,336,9.0,20.0,85,0.00,,,0.04,WeatherTracker,2013-01-18 00:30:00,
2013-01-17 18:40:00,41.2,36.7,30.22,NW,318,12.0,21.0,84,0.00,,,0.04,WeatherTracker,2013-01-18 00:40:00,
2013-01-17 18:45:00,41.2,36.7,30.22,North,9,11.0,15.0,84,0.00,,,0.04,WeatherTracker,2013-01-18 00:45:00,
2013-01-17 18:50:00,41.3,36.8,30.23,NNW,335,5.0,20.0,84,0.00,,,0.04,WeatherTracker,2013-01-18 00:50:00,
2013-01-17 19:00:00,41.3,36.8,30.23,NNW,346,17.0,17.0,84,0.00,,,0.04,WeatherTracker,2013-01-18 01:00:00,
2013-01-17 19:05:00,41.3,36.5,30.23,NW,317,9.0,19.0,83,0.00,,,0.04,WeatherTracker,2013-01-18 01:05:00,
2013-01-17 19:15:00,41.1,36.3,30.24,NNW,347,7.0,16.0,83,0.00,,,0.04,WeatherTracker,2013-01-18 01:15:00,
2013-01-17 19:25:00,40.9,36.1,30.24,North,350,7.0,17.0,83,0.00,,,0.04,WeatherTracker,2013-01-18 01:25:00,
2013-01-17 19:30:00,40.8,36.3,30.24,NNW,346,8.0,17.0,84,0.00,,,0.04,WeatherTracker,2013-01-18 01:30:00,
2013-01-17 19:35:00,40.7,36.2,30.24,NW,311,4.0,14.0,84,0.00,,,0.04,WeatherTracker,2013-01-18 01:35:00,
2013-01-17 19:45:00,40.5,36.4,30.25,NNW,343,8.0,15.0,85,0.00,,,0.04,WeatherTracker,2013-01-18 01:45:00,
2013-01-17 19:55:00,40.3,36.2,30.24,NNW,338,5.0,12.0,85,0.00,,,0.04,WeatherTracker,2013-01-18 01:55:00,
2013-01-17 20:00:00,40.3,36.2,30.25,NW,313,4.0,12.0,85,0.00,,,0.04,WeatherTracker,2013-01-18 02:00:00,
2013-01-17 20:05:00,40.2,36.1,30.25,NNW,345,7.0,12.0,85,0.00,,,0.04,WeatherTracker,2013-01-18 02:05:00,
2013-01-17 20:15:00,40.1,36.3,30.25,North,360,12.0,14.0,86,0.00,,,0.04,WeatherTracker,2013-01-18 02:15:00,
2013-01-17 20:25:00,40.1,36.3,30.25,North,350,9.0,17.0,86,0.00,,,0.04,WeatherTracker,2013-01-18 02:25:00,
2013-01-17 20:30:00,40.1,36.3,30.25,North,360,9.0,15.0,86,0.00,,,0.04,WeatherTracker,2013-01-18 02:30:00,
2013-01-17 20:40:00,40.1,36.3,30.24,NW,322,13.0,16.0,86,0.00,,,0.04,WeatherTracker,2013-01-18 02:40:00,
2013-01-17 20:45:00,40.1,36.3,30.25,NNW,343,12.0,16.0,86,0.00,,,0.04,WeatherTracker,2013-01-18 02:45:00,
2013-01-17 20:55:00,40.0,36.2,30.24,NNW,332,7.0,16.0,86,0.00,,,0.04,WeatherTracker,2013-01-18 02:55:00,
2013-01-17 21:00:00,40.0,36.2,30.24,NW,321,6.0,16.0,86,0.00,,,0.04,WeatherTracker,2013-01-18 03:00:00,
2013-01-17 21:10:00,40.1,36.3,30.24,NNE,19,9.0,16.0,86,0.00,,,0.04,WeatherTracker,2013-01-18 03:10:00,
2013-01-17 21:15:00,40.1,36.3,30.24,North,360,9.0,16.0,86,0.00,,,0.04,WeatherTracker,2013-01-18 03:15:00,
2013-01-17 21:25:00,40.3,36.5,30.24,North,349,8.0,17.0,86,0.00,,,0.04,WeatherTracker,2013-01-18 03:25:00,
2013-01-17 21:30:00,40.3,36.5,30.24,North,355,11.0,17.0,86,0.00,,,0.04,WeatherTracker,2013-01-18 03:30:00,
2013-01-17 21:40:00,40.4,36.5,30.24,North,360,8.0,18.0,86,0.00,,,0.04,WeatherTracker,2013-01-18 03:40:00,
2013-01-17 21:45:00,40.4,36.5,30.25,North,360,10.0,18.0,86,0.00,,,0.04,WeatherTracker,2013-01-18 03:45:00,
2013-01-17 21:55:00,40.4,36.3,30.25,North,5,10.0,16.0,85,0.00,,,0.04,WeatherTracker,2013-01-18 03:55:00,
2013-01-17 22:05:00,40.4,36.5,30.25,North,9,9.0,17.0,86,0.00,,,0.04,WeatherTracker,2013-01-18 04:05:00,
2013-01-17 22:10:00,40.3,36.5,30.25,North,360,6.0,17.0,86,0.00,,,0.04,WeatherTracker,2013-01-18 04:10:00,
2013-01-17 22:15:00,40.2,36.4,30.25,North,350,6.0,12.0,86,0.00,,,0.04,WeatherTracker,2013-01-18 04:15:00,
2013-01-17 22:20:00,40.1,36.3,30.26,NNE,19,7.0,12.0,86,0.00,,,0.04,WeatherTracker,2013-01-18 04:20:00,
2013-01-17 22:25:00,40.1,36.3,30.26,North,9,9.0,11.0,86,0.00,,,0.04,WeatherTracker,2013-01-18 04:25:00,
2013-01-17 22:30:00,40.1,36.3,30.26,North,9,7.0,13.0,86,0.00,,,0.04,WeatherTracker,2013-01-18 04:30:00,
2013-01-17 22:40:00,40.1,36.3,30.26,NNW,337,7.0,12.0,86,0.00,,,0.04,WeatherTracker,2013-01-18 04:40:00,
2013-01-17 22:45:00,40.1,36.3,30.26,North,5,6.0,12.0,86,0.00,,,0.04,WeatherTracker,2013-01-18 04:45:00,
2013-01-17 22:55:00,40.1,36.3,30.26,NNW,329,10.0,14.0,86,0.00,,,0.04,WeatherTracker,2013-01-18 04:55:00,
2013-01-17 23:00:00,40.2,36.4,30.26,North,351,8.0,14.0,86,0.00,,,0.04,WeatherTracker,2013-01-18 05:00:00,
2013-01-17 23:05:00,40.2,36.4,30.26,North,355,8.0,15.0,86,0.00,,,0.04,WeatherTracker,2013-01-18 05:05:00,
2013-01-17 23:10:00,40.2,36.4,30.26,North,355,7.0,15.0,86,0.00,,,0.04,WeatherTracker,2013-01-18 05:10:00,
2013-01-17 23:15:00,40.2,36.1,30.26,NNW,347,7.0,16.0,85,0.00,,,0.04,WeatherTracker,2013-01-18 05:15:00,
2013-01-17 23:20:00,40.3,36.2,30.27,North,5,7.0,17.0,85,0.00,,,0.04,WeatherTracker,2013-01-18 05:20:00,
2013-01-17 23:25:00,40.3,36.2,30.27,North,351,8.0,17.0,85,0.00,,,0.04,WeatherTracker,2013-01-18 05:25:00,
2013-01-17 23:30:00,40.3,36.2,30.27,North,5,10.0,16.0,85,0.00,,,0.04,WeatherTracker,2013-01-18 05:30:00,
2013-01-17 23:40:00,40.1,36.0,30.27,NNE,22,7.0,14.0,85,0.00,,,0.04,WeatherTracker,2013-01-18 05:40:00,
2013-01-17 23:50:00,40.1,36.0,30.27,NNE,20,8.0,13.0,85,0.00,,,0.04,WeatherTracker,2013-01-18 05:50:00,